Time,TemperatureF,DewpointF,PressureIn,WindDirection,WindDirectionDegrees,WindSpeedMPH,WindSpeedGustMPH,Humidity,HourlyPrecipIn,Conditions,Clouds,dailyrainin,SoftwareType,DateUTC
2013-02-13 00:00:00,31.8,24.0,29.01,WSW,247,4.0,7.0,74,0.00,,,0.00,Rainwise IP-100,2013-02-13 05:00:00,
2013-02-13 00:05:00,31.8,24.0,29.01,WSW,247,5.0,9.0,72,0.00,,,0.00,Rainwise IP-100,2013-02-13 05:05:00,
2013-02-13 00:10:00,31.8,24.0,29.02,WSW,247,4.0,7.0,73,0.00,,,0.00,Rainwise IP-100,2013-02-13 05:10:00,
2013-02-13 00:15:00,31.7,24.0,29.01,SW,225,8.0,9.0,73,0.00,,,0.00,Rainwise IP-100,2013-02-13 05:15:00,
2013-02-13 00:20:00,31.8,24.0,29.01,WSW,247,3.0,11.0,71,0.00,,,0.00,Rainwise IP-100,2013-02-13 05:20:00,
2013-02-13 00:25:00,31.8,24.0,29.01,West,270,4.0,11.0,71,0.00,,,0.00,Rainwise IP-100,2013-02-13 05:25:00,
2013-02-13 00:30:00,31.7,24.0,29.01,WSW,247,3.0,7.0,71,0.00,,,0.00,Rainwise IP-100,2013-02-13 05:30:00,
2013-02-13 00:35:00,31.7,24.0,29.01,WSW,247,4.0,7.0,71,0.00,,,0.00,Rainwise IP-100,2013-02-13 05:35:00,
2013-02-13 00:40:00,31.7,24.0,29.01,SW,225,3.0,7.0,70,0.00,,,0.00,Rainwise IP-100,2013-02-13 05:40:00,
2013-02-13 00:45:00,31.6,24.0,29.01,SW,225,1.0,6.0,71,0.00,,,0.00,Rainwise IP-100,2013-02-13 05:45:00,
2013-02-13 00:50:00,31.7,24.0,29.01,WSW,247,4.0,9.0,70,0.00,,,0.00,Rainwise IP-100,2013-02-13 05:50:00,
2013-02-13 00:55:00,31.6,24.0,29.01,WSW,247,4.0,6.0,70,0.00,,,0.00,Rainwise IP-100,2013-02-13 05:55:00,
2013-02-13 01:00:00,31.5,24.0,29.01,SW,225,1.0,4.0,73,0.00,,,0.00,Rainwise IP-100,2013-02-13 06:00:00,
2013-02-13 01:05:00,31.4,23.0,29.01,SSW,202,2.0,4.0,73,0.00,,,0.00,Rainwise IP-100,2013-02-13 06:05:00,
2013-02-13 01:10:00,31.4,23.0,29.01,SSW,202,2.0,5.0,72,0.00,,,0.00,Rainwise IP-100,2013-02-13 06:10:00,
2013-02-13 01:15:00,31.2,23.0,29.00,SSW,202,1.0,2.0,73,0.00,,,0.00,Rainwise IP-100,2013-02-13 06:15:00,
2013-02-13 01:20:00,31.2,23.0,29.00,SSW,202,2.0,2.0,73,0.00,,,0.00,Rainwise IP-100,2013-02-13 06:20:00,
2013-02-13 01:25:00,31.1,24.0,29.00,SSW,202,1.0,2.0,74,0.00,,,0.00,Rainwise IP-100,2013-02-13 06:25:00,
2013-02-13 01:30:00,30.9,24.0,29.00,South,180,2.0,2.0,75,0.00,,,0.00,Rainwise IP-100,2013-02-13 06:30:00,
2013-02-13 01:35:00,30.9,24.0,29.00,SSW,202,1.0,4.0,74,0.00,,,0.00,Rainwise IP-100,2013-02-13 06:35:00,
2013-02-13 01:40:00,30.9,24.0,29.01,South,180,2.0,2.0,76,0.00,,,0.00,Rainwise IP-100,2013-02-13 06:40:00,
2013-02-13 01:45:00,30.8,24.0,29.01,South,180,2.0,2.0,76,0.00,,,0.00,Rainwise IP-100,2013-02-13 06:45:00,
2013-02-13 01:50:00,30.7,24.0,29.01,South,180,2.0,4.0,75,0.00,,,0.00,Rainwise IP-100,2013-02-13 06:50:00,
2013-02-13 01:55:00,30.7,24.0,29.00,South,180,2.0,4.0,74,0.00,,,0.00,Rainwise IP-100,2013-02-13 06:55:00,
2013-02-13 02:00:00,30.8,24.0,29.00,South,180,2.0,4.0,74,0.00,,,0.00,Rainwise IP-100,2013-02-13 07:00:00,
2013-02-13 02:05:00,30.8,24.0,29.01,South,180,1.0,4.0,75,0.00,,,0.00,Rainwise IP-100,2013-02-13 07:05:00,
2013-02-13 02:10:00,30.9,23.0,29.00,South,180,2.0,4.0,73,0.00,,,0.00,Rainwise IP-100,2013-02-13 07:10:00,
2013-02-13 02:15:00,30.9,24.0,29.00,South,180,1.0,2.0,74,0.00,,,0.00,Rainwise IP-100,2013-02-13 07:15:00,
2013-02-13 02:20:00,30.8,24.0,29.00,South,180,1.0,3.0,75,0.00,,,0.00,Rainwise IP-100,2013-02-13 07:20:00,
2013-02-13 02:25:00,30.8,24.0,29.00,South,180,1.0,4.0,74,0.00,,,0.00,Rainwise IP-100,2013-02-13 07:25:00,
2013-02-13 02:30:00,30.7,24.0,28.99,South,180,1.0,3.0,75,0.00,,,0.00,Rainwise IP-100,2013-02-13 07:30:00,
2013-02-13 02:31:00,30.7,24.0,28.99,South,180,2.0,3.0,75,0.00,,,0.00,Rainwise IP-100,2013-02-13 07:31:00,
2013-02-13 02:36:00,30.9,24.0,28.99,South,180,2.0,3.0,75,0.00,,,0.00,Rainwise IP-100,2013-02-13 07:36:00,
2013-02-13 02:41:00,30.8,24.0,28.99,South,180,2.0,2.0,75,0.00,,,0.00,Rainwise IP-100,2013-02-13 07:41:00,
2013-02-13 02:46:00,30.8,24.0,28.99,South,180,1.0,2.0,76,0.00,,,0.00,Rainwise IP-100,2013-02-13 07:46:00,
2013-02-13 02:51:00,30.8,24.0,28.99,South,180,1.0,2.0,76,0.00,,,0.00,Rainwise IP-100,2013-02-13 07:51:00,
2013-02-13 02:56:00,30.8,24.0,28.99,South,180,2.0,3.0,75,0.00,,,0.00,Rainwise IP-100,2013-02-13 07:56:00,
2013-02-13 03:01:00,30.8,24.0,28.99,South,180,2.0,3.0,75,0.00,,,0.00,Rainwise IP-100,2013-02-13 08:01:00,
2013-02-13 03:06:00,30.8,24.0,28.98,South,180,1.0,2.0,76,0.00,,,0.00,Rainwise IP-100,2013-02-13 08:06:00,
2013-02-13 03:11:00,30.7,24.0,28.98,South,180,2.0,2.0,75,0.00,,,0.00,Rainwise IP-100,2013-02-13 08:11:00,
2013-02-13 03:16:00,30.7,24.0,28.98,South,180,2.0,3.0,76,0.00,,,0.00,Rainwise IP-100,2013-02-13 08:16:00,
2013-02-13 03:21:00,30.7,24.0,28.98,South,180,1.0,2.0,76,0.00,,,0.00,Rainwise IP-100,2013-02-13 08:21:00,
2013-02-13 03:25:00,30.5,24.0,28.98,South,180,1.0,2.0,76,0.00,,,0.00,Rainwise IP-100,2013-02-13 08:25:00,
2013-02-13 03:30:00,30.5,24.0,28.98,South,180,1.0,2.0,77,0.00,,,0.00,Rainwise IP-100,2013-02-13 08:30:00,
2013-02-13 03:35:00,30.4,24.0,28.98,SSE,157,3.0,4.0,77,0.00,,,0.00,Rainwise IP-100,2013-02-13 08:35:00,
2013-02-13 03:40:00,30.3,24.0,28.97,SSE,157,2.0,3.0,78,0.00,,,0.00,Rainwise IP-100,2013-02-13 08:40:00,
2013-02-13 03:45:00,30.3,24.0,28.97,SSE,157,2.0,2.0,79,0.00,,,0.00,Rainwise IP-100,2013-02-13 08:45:00,
2013-02-13 03:50:00,30.2,24.0,28.97,SSE,157,1.0,2.0,79,0.00,,,0.00,Rainwise IP-100,2013-02-13 08:50:00,
2013-02-13 03:55:00,30.1,24.0,28.97,SSE,157,0.0,1.0,79,0.00,,,0.00,Rainwise IP-100,2013-02-13 08:55:00,
2013-02-13 04:00:00,30.1,24.0,28.97,SSE,157,0.0,2.0,79,0.00,,,0.00,Rainwise IP-100,2013-02-13 09:00:00,
2013-02-13 04:05:00,30.0,24.0,28.97,SSE,157,2.0,2.0,79,0.00,,,0.00,Rainwise IP-100,2013-02-13 09:05:00,
2013-02-13 04:10:00,30.0,24.0,28.97,SSE,157,3.0,3.0,78,0.00,,,0.00,Rainwise IP-100,2013-02-13 09:10:00,
2013-02-13 04:15:00,30.2,24.0,28.97,South,180,2.0,4.0,78,0.00,,,0.00,Rainwise IP-100,2013-02-13 09:15:00,
2013-02-13 04:20:00,30.2,24.0,28.96,South,180,2.0,2.0,77,0.00,,,0.00,Rainwise IP-100,2013-02-13 09:20:00,
2013-02-13 04:25:00,30.3,24.0,28.96,South,180,2.0,3.0,77,0.00,,,0.00,Rainwise IP-100,2013-02-13 09:25:00,
2013-02-13 04:30:00,30.4,24.0,28.97,South,180,2.0,2.0,78,0.00,,,0.00,Rainwise IP-100,2013-02-13 09:30:00,
2013-02-13 04:35:00,30.4,24.0,28.96,South,180,2.0,4.0,77,0.00,,,0.00,Rainwise IP-100,2013-02-13 09:35:00,
2013-02-13 04:40:00,30.5,24.0,28.96,South,180,2.0,3.0,77,0.00,,,0.00,Rainwise IP-100,2013-02-13 09:40:00,
2013-02-13 04:45:00,30.5,24.0,28.96,South,180,2.0,2.0,77,0.00,,,0.00,Rainwise IP-100,2013-02-13 09:45:00,
2013-02-13 04:50:00,30.6,24.0,28.96,South,180,2.0,2.0,77,0.00,,,0.00,Rainwise IP-100,2013-02-13 09:50:00,
2013-02-13 04:55:00,30.7,24.0,28.96,South,180,0.0,2.0,76,0.00,,,0.00,Rainwise IP-100,2013-02-13 09:55:00,
2013-02-13 05:00:00,30.6,24.0,28.96,South,180,1.0,2.0,78,0.00,,,0.00,Rainwise IP-100,2013-02-13 10:00:00,
2013-02-13 05:05:00,30.5,24.0,28.96,South,180,1.0,2.0,77,0.00,,,0.00,Rainwise IP-100,2013-02-13 10:05:00,
2013-02-13 05:10:00,30.5,24.0,28.96,South,180,2.0,2.0,77,0.00,,,0.00,Rainwise IP-100,2013-02-13 10:10:00,
2013-02-13 05:15:00,30.5,24.0,28.96,South,180,2.0,3.0,78,0.00,,,0.00,Rainwise IP-100,2013-02-13 10:15:00,
2013-02-13 05:20:00,30.7,24.0,28.96,South,180,1.0,3.0,78,0.00,,,0.00,Rainwise IP-100,2013-02-13 10:20:00,
2013-02-13 05:25:00,30.5,26.0,28.96,South,180,2.0,3.0,80,0.00,,,0.00,Rainwise IP-100,2013-02-13 10:25:00,
2013-02-13 05:30:00,30.4,24.0,28.96,SSE,157,2.0,3.0,78,0.00,,,0.00,Rainwise IP-100,2013-02-13 10:30:00,
2013-02-13 05:35:00,30.4,24.0,28.96,SSE,157,2.0,2.0,78,0.00,,,0.00,Rainwise IP-100,2013-02-13 10:35:00,
2013-02-13 05:40:00,30.4,24.0,28.96,SSE,157,1.0,2.0,79,0.00,,,0.00,Rainwise IP-100,2013-02-13 10:40:00,
2013-02-13 05:45:00,30.4,24.0,28.96,SSE,157,2.0,2.0,79,0.00,,,0.00,Rainwise IP-100,2013-02-13 10:45:00,
2013-02-13 05:50:00,30.3,24.0,28.96,SSE,157,1.0,2.0,79,0.00,,,0.00,Rainwise IP-100,2013-02-13 10:50:00,
2013-02-13 05:55:00,30.4,24.0,28.96,SSE,157,2.0,2.0,78,0.00,,,0.00,Rainwise IP-100,2013-02-13 10:55:00,
2013-02-13 06:00:00,30.5,24.0,28.96,SSE,157,0.0,2.0,78,0.00,,,0.00,Rainwise IP-100,2013-02-13 11:00:00,
2013-02-13 06:05:00,30.5,24.0,28.96,SSE,157,1.0,2.0,78,0.00,,,0.00,Rainwise IP-100,2013-02-13 11:05:00,
2013-02-13 06:10:00,30.5,24.0,28.96,South,180,1.0,2.0,77,0.00,,,0.00,Rainwise IP-100,2013-02-13 11:10:00,
2013-02-13 06:15:00,30.6,24.0,28.95,South,180,0.0,2.0,78,0.00,,,0.00,Rainwise IP-100,2013-02-13 11:15:00,
2013-02-13 06:20:00,31.1,24.0,28.96,SW,225,2.0,3.0,75,0.00,,,0.00,Rainwise IP-100,2013-02-13 11:20:00,
2013-02-13 06:25:00,31.3,24.0,28.95,WSW,247,2.0,3.0,74,0.00,,,0.00,Rainwise IP-100,2013-02-13 11:25:00,
2013-02-13 06:30:00,31.9,24.0,28.95,WSW,247,6.0,8.0,70,0.00,,,0.00,Rainwise IP-100,2013-02-13 11:30:00,
2013-02-13 06:35:00,32.0,23.0,28.95,West,270,4.0,8.0,68,0.00,,,0.00,Rainwise IP-100,2013-02-13 11:35:00,
2013-02-13 06:40:00,32.3,23.0,28.95,WSW,247,7.0,9.0,66,0.00,,,0.00,Rainwise IP-100,2013-02-13 11:40:00,
2013-02-13 06:45:00,32.2,23.0,28.95,SW,225,6.0,10.0,68,0.00,,,0.00,Rainwise IP-100,2013-02-13 11:45:00,
2013-02-13 06:50:00,32.2,23.0,28.96,SW,225,4.0,7.0,68,0.00,,,0.00,Rainwise IP-100,2013-02-13 11:50:00,
2013-02-13 06:55:00,32.1,23.0,28.96,SW,225,1.0,7.0,68,0.00,,,0.00,Rainwise IP-100,2013-02-13 11:55:00,
2013-02-13 07:00:00,32.0,23.0,28.96,SW,225,2.0,5.0,68,0.00,,,0.00,Rainwise IP-100,2013-02-13 12:00:00,
2013-02-13 07:05:00,31.9,24.0,28.96,SW,225,2.0,4.0,70,0.00,,,0.00,Rainwise IP-100,2013-02-13 12:05:00,
2013-02-13 07:10:00,31.9,24.0,28.96,SW,225,4.0,5.0,70,0.00,,,0.00,Rainwise IP-100,2013-02-13 12:10:00,
2013-02-13 07:15:00,31.9,23.0,28.96,SW,225,5.0,5.0,69,0.00,,,0.00,Rainwise IP-100,2013-02-13 12:15:00,
2013-02-13 07:20:00,31.9,23.0,28.96,SW,225,2.0,5.0,68,0.00,,,0.00,Rainwise IP-100,2013-02-13 12:20:00,
2013-02-13 07:25:00,31.9,24.0,28.96,SW,225,2.0,3.0,70,0.00,,,0.00,Rainwise IP-100,2013-02-13 12:25:00,
2013-02-13 07:30:00,31.9,23.0,28.95,SW,225,2.0,5.0,69,0.00,,,0.00,Rainwise IP-100,2013-02-13 12:30:00,
2013-02-13 07:35:00,31.8,24.0,28.96,WSW,247,1.0,2.0,72,0.00,,,0.00,Rainwise IP-100,2013-02-13 12:35:00,
2013-02-13 07:40:00,31.8,24.0,28.95,SW,225,1.0,3.0,72,0.00,,,0.00,Rainwise IP-100,2013-02-13 12:40:00,
2013-02-13 07:45:00,31.7,24.0,28.95,WSW,247,1.0,2.0,73,0.00,,,0.00,Rainwise IP-100,2013-02-13 12:45:00,
2013-02-13 07:50:00,31.7,24.0,28.95,SW,225,2.0,3.0,72,0.00,,,0.00,Rainwise IP-100,2013-02-13 12:50:00,
2013-02-13 07:55:00,31.6,24.0,28.95,SW,225,0.0,2.0,74,0.00,,,0.00,Rainwise IP-100,2013-02-13 12:55:00,
2013-02-13 08:00:00,31.6,26.0,28.95,South,180,2.0,2.0,77,0.00,,,0.00,Rainwise IP-100,2013-02-13 13:00:00,
2013-02-13 08:05:00,31.5,26.0,28.95,South,180,0.0,2.0,77,0.00,,,0.00,Rainwise IP-100,2013-02-13 13:05:00,
2013-02-13 08:10:00,31.5,24.0,28.95,South,180,0.0,2.0,74,0.00,,,0.00,Rainwise IP-100,2013-02-13 13:10:00,
2013-02-13 08:15:00,31.5,26.0,28.95,South,180,2.0,2.0,75,0.00,,,0.00,Rainwise IP-100,2013-02-13 13:15:00,
2013-02-13 08:20:00,31.7,24.0,28.95,South,180,0.0,2.0,73,0.00,,,0.00,Rainwise IP-100,2013-02-13 13:20:00,
2013-02-13 08:25:00,31.9,24.0,28.95,South,180,0.0,2.0,72,0.00,,,0.00,Rainwise IP-100,2013-02-13 13:25:00,
2013-02-13 08:30:00,32.0,24.0,28.95,South,180,0.0,2.0,73,0.00,,,0.00,Rainwise IP-100,2013-02-13 13:30:00,
2013-02-13 08:35:00,32.1,24.0,28.95,South,180,1.0,2.0,73,0.00,,,0.00,Rainwise IP-100,2013-02-13 13:35:00,
2013-02-13 08:40:00,32.3,24.0,28.95,South,180,0.0,2.0,71,0.00,,,0.00,Rainwise IP-100,2013-02-13 13:40:00,
2013-02-13 08:45:00,32.4,24.0,28.95,South,180,0.0,0.0,70,0.00,,,0.00,Rainwise IP-100,2013-02-13 13:45:00,
2013-02-13 08:50:00,32.6,24.0,28.95,West,270,1.0,2.0,67,0.00,,,0.00,Rainwise IP-100,2013-02-13 13:50:00,
2013-02-13 08:55:00,32.7,24.0,28.94,West,270,2.0,3.0,66,0.00,,,0.00,Rainwise IP-100,2013-02-13 13:55:00,
2013-02-13 09:00:00,32.8,24.0,28.94,WNW,292,3.0,4.0,66,0.00,,,0.00,Rainwise IP-100,2013-02-13 14:00:00,
2013-02-13 09:05:00,32.7,23.0,28.94,West,270,4.0,6.0,65,0.00,,,0.00,Rainwise IP-100,2013-02-13 14:05:00,
2013-02-13 09:10:00,32.8,24.0,28.94,NW,315,2.0,6.0,67,0.00,,,0.00,Rainwise IP-100,2013-02-13 14:10:00,
2013-02-13 09:15:00,32.9,24.0,28.94,WNW,292,1.0,3.0,67,0.00,,,0.00,Rainwise IP-100,2013-02-13 14:15:00,
2013-02-13 09:20:00,32.9,24.0,28.94,WSW,247,2.0,2.0,66,0.00,,,0.00,Rainwise IP-100,2013-02-13 14:20:00,
2013-02-13 09:25:00,33.0,24.0,28.94,West,270,1.0,2.0,66,0.00,,,0.00,Rainwise IP-100,2013-02-13 14:25:00,
2013-02-13 09:30:00,33.1,24.0,28.94,WSW,247,2.0,4.0,67,0.00,,,0.00,Rainwise IP-100,2013-02-13 14:30:00,
2013-02-13 09:35:00,33.1,24.0,28.94,West,270,1.0,3.0,66,0.00,,,0.00,Rainwise IP-100,2013-02-13 14:35:00,
2013-02-13 09:40:00,33.0,24.0,28.95,WSW,247,2.0,4.0,66,0.00,,,0.00,Rainwise IP-100,2013-02-13 14:40:00,
2013-02-13 09:45:00,33.0,23.0,28.95,NW,315,1.0,4.0,65,0.00,,,0.00,Rainwise IP-100,2013-02-13 14:45:00,
2013-02-13 09:50:00,33.0,23.0,28.94,WNW,292,2.0,4.0,65,0.00,,,0.00,Rainwise IP-100,2013-02-13 14:50:00,
2013-02-13 09:55:00,33.0,23.0,28.94,West,270,2.0,4.0,65,0.00,,,0.00,Rainwise IP-100,2013-02-13 14:55:00,
2013-02-13 10:00:00,33.0,23.0,28.94,West,270,1.0,4.0,65,0.00,,,0.00,Rainwise IP-100,2013-02-13 15:00:00,
2013-02-13 10:05:00,33.2,24.0,28.94,NNW,337,1.0,4.0,66,0.00,,,0.00,Rainwise IP-100,2013-02-13 15:05:00,
2013-02-13 10:10:00,33.3,24.0,28.94,NW,315,1.0,3.0,66,0.00,,,0.00,Rainwise IP-100,2013-02-13 15:10:00,
2013-02-13 10:15:00,33.1,23.0,28.94,WNW,292,2.0,4.0,65,0.00,,,0.00,Rainwise IP-100,2013-02-13 15:15:00,
2013-02-13 10:20:00,33.4,23.0,28.93,NNW,337,3.0,4.0,65,0.00,,,0.00,Rainwise IP-100,2013-02-13 15:20:00,
2013-02-13 10:25:00,33.7,24.0,28.93,NNW,337,2.0,3.0,64,0.00,,,0.00,Rainwise IP-100,2013-02-13 15:25:00,
2013-02-13 10:30:00,33.9,24.0,28.93,NW,315,1.0,2.0,64,0.00,,,0.00,Rainwise IP-100,2013-02-13 15:30:00,
2013-02-13 10:35:00,34.1,24.0,28.93,NNW,337,1.0,3.0,64,0.00,,,0.00,Rainwise IP-100,2013-02-13 15:35:00,
2013-02-13 10:40:00,34.3,24.0,28.93,NW,315,2.0,3.0,63,0.00,,,0.00,Rainwise IP-100,2013-02-13 15:40:00,
2013-02-13 10:45:00,34.1,24.0,28.93,WSW,247,0.0,3.0,65,0.00,,,0.00,Rainwise IP-100,2013-02-13 15:45:00,
2013-02-13 10:50:00,34.3,24.0,28.93,NW,315,0.0,2.0,65,0.00,,,0.00,Rainwise IP-100,2013-02-13 15:50:00,
2013-02-13 10:55:00,34.3,24.0,28.93,North,360,2.0,4.0,63,0.00,,,0.00,Rainwise IP-100,2013-02-13 15:55:00,
2013-02-13 11:00:00,34.4,24.0,28.93,WNW,292,1.0,3.0,65,0.00,,,0.00,Rainwise IP-100,2013-02-13 16:00:00,
2013-02-13 11:05:00,34.2,24.0,28.93,WNW,292,2.0,3.0,64,0.00,,,0.00,Rainwise IP-100,2013-02-13 16:05:00,
2013-02-13 11:10:00,34.2,24.0,28.93,WNW,292,2.0,2.0,65,0.00,,,0.00,Rainwise IP-100,2013-02-13 16:10:00,
2013-02-13 11:15:00,34.3,24.0,28.93,West,270,1.0,2.0,64,0.00,,,0.00,Rainwise IP-100,2013-02-13 16:15:00,
2013-02-13 11:20:00,34.7,24.0,28.93,South,180,2.0,2.0,63,0.00,,,0.00,Rainwise IP-100,2013-02-13 16:20:00,
2013-02-13 11:25:00,35.1,23.0,28.92,South,180,2.0,2.0,62,0.00,,,0.00,Rainwise IP-100,2013-02-13 16:25:00,
2013-02-13 11:30:00,35.1,23.0,28.92,North,360,1.0,4.0,62,0.00,,,0.00,Rainwise IP-100,2013-02-13 16:30:00,
2013-02-13 11:35:00,35.1,23.0,28.92,South,180,1.0,4.0,62,0.00,,,0.00,Rainwise IP-100,2013-02-13 16:35:00,
2013-02-13 11:40:00,35.4,24.0,28.92,SE,135,1.0,2.0,64,0.00,,,0.00,Rainwise IP-100,2013-02-13 16:40:00,
2013-02-13 11:45:00,35.3,23.0,28.91,ESE,112,2.0,3.0,62,0.00,,,0.00,Rainwise IP-100,2013-02-13 16:45:00,
2013-02-13 11:50:00,34.9,24.0,28.91,East,90,3.0,3.0,63,0.00,,,0.00,Rainwise IP-100,2013-02-13 16:50:00,
2013-02-13 11:55:00,34.8,24.0,28.91,NNE,22,4.0,4.0,63,0.00,,,0.00,Rainwise IP-100,2013-02-13 16:55:00,
2013-02-13 12:00:00,35.5,24.0,28.90,North,360,2.0,5.0,62,0.00,,,0.00,Rainwise IP-100,2013-02-13 17:00:00,
2013-02-13 12:05:00,36.9,24.0,28.90,NE,45,1.0,4.0,61,0.00,,,0.00,Rainwise IP-100,2013-02-13 17:05:00,
2013-02-13 12:10:00,35.9,24.0,28.90,NNE,22,1.0,6.0,62,0.00,,,0.00,Rainwise IP-100,2013-02-13 17:10:00,
2013-02-13 12:15:00,35.6,24.0,28.90,East,90,4.0,4.0,62,0.00,,,0.00,Rainwise IP-100,2013-02-13 17:15:00,
2013-02-13 12:20:00,35.5,24.0,28.90,NNE,22,6.0,7.0,61,0.00,,,0.00,Rainwise IP-100,2013-02-13 17:20:00,
2013-02-13 12:25:00,36.3,24.0,28.90,East,90,2.0,7.0,60,0.00,,,0.00,Rainwise IP-100,2013-02-13 17:25:00,
2013-02-13 12:30:00,36.5,24.0,28.90,SE,135,3.0,5.0,60,0.00,,,0.00,Rainwise IP-100,2013-02-13 17:30:00,
2013-02-13 12:35:00,36.5,24.0,28.90,ESE,112,2.0,4.0,61,0.00,,,0.00,Rainwise IP-100,2013-02-13 17:35:00,
2013-02-13 12:40:00,36.3,24.0,28.90,ESE,112,3.0,6.0,63,0.00,,,0.00,Rainwise IP-100,2013-02-13 17:40:00,
2013-02-13 12:45:00,35.6,24.0,28.90,ESE,112,2.0,4.0,62,0.00,,,0.00,Rainwise IP-100,2013-02-13 17:45:00,
2013-02-13 12:50:00,35.6,24.0,28.89,NE,45,2.0,4.0,61,0.00,,,0.00,Rainwise IP-100,2013-02-13 17:50:00,
2013-02-13 12:55:00,35.9,24.0,28.89,NNE,22,4.0,5.0,62,0.00,,,0.00,Rainwise IP-100,2013-02-13 17:55:00,
2013-02-13 13:00:00,36.7,24.0,28.89,NE,45,1.0,7.0,61,0.00,,,0.00,Rainwise IP-100,2013-02-13 18:00:00,
2013-02-13 13:05:00,36.3,24.0,28.89,NE,45,2.0,7.0,60,0.00,,,0.00,Rainwise IP-100,2013-02-13 18:05:00,
2013-02-13 13:10:00,35.7,23.0,28.89,NNE,22,4.0,4.0,59,0.00,,,0.00,Rainwise IP-100,2013-02-13 18:10:00,
2013-02-13 13:15:00,35.9,24.0,28.88,East,90,2.0,6.0,62,0.00,,,0.00,Rainwise IP-100,2013-02-13 18:15:00,
2013-02-13 13:20:00,35.6,24.0,28.88,NNE,22,2.0,3.0,63,0.00,,,0.00,Rainwise IP-100,2013-02-13 18:20:00,
2013-02-13 13:25:00,35.9,24.0,28.88,East,90,3.0,3.0,61,0.00,,,0.00,Rainwise IP-100,2013-02-13 18:25:00,
2013-02-13 13:30:00,36.7,24.0,28.88,ENE,67,2.0,4.0,61,0.00,,,0.00,Rainwise IP-100,2013-02-13 18:30:00,
2013-02-13 13:35:00,36.3,23.0,28.88,East,90,3.0,3.0,59,0.00,,,0.00,Rainwise IP-100,2013-02-13 18:35:00,
2013-02-13 13:40:00,36.9,24.0,28.87,ESE,112,1.0,4.0,60,0.00,,,0.00,Rainwise IP-100,2013-02-13 18:40:00,
2013-02-13 13:45:00,36.9,24.0,28.87,NNE,22,4.0,4.0,60,0.00,,,0.00,Rainwise IP-100,2013-02-13 18:45:00,
2013-02-13 13:50:00,37.0,24.0,28.87,North,360,2.0,4.0,60,0.00,,,0.00,Rainwise IP-100,2013-02-13 18:50:00,
2013-02-13 13:55:00,37.5,26.0,28.86,NNE,22,6.0,6.0,61,0.00,,,0.00,Rainwise IP-100,2013-02-13 18:55:00,
2013-02-13 14:00:00,37.1,24.0,28.86,NNE,22,5.0,8.0,60,0.00,,,0.00,Rainwise IP-100,2013-02-13 19:00:00,
2013-02-13 14:05:00,37.0,24.0,28.86,NE,45,1.0,7.0,60,0.00,,,0.00,Rainwise IP-100,2013-02-13 19:05:00,
2013-02-13 14:10:00,37.6,26.0,28.86,NNE,22,4.0,4.0,61,0.00,,,0.00,Rainwise IP-100,2013-02-13 19:10:00,
2013-02-13 14:15:00,37.9,24.0,28.86,NE,45,2.0,4.0,58,0.00,,,0.00,Rainwise IP-100,2013-02-13 19:15:00,
2013-02-13 14:20:00,37.5,24.0,28.86,NNE,22,3.0,5.0,58,0.00,,,0.00,Rainwise IP-100,2013-02-13 19:20:00,
2013-02-13 14:25:00,37.6,26.0,28.86,NE,45,1.0,7.0,61,0.00,,,0.00,Rainwise IP-100,2013-02-13 19:25:00,
2013-02-13 14:30:00,37.8,24.0,28.86,East,90,2.0,5.0,58,0.00,,,0.00,Rainwise IP-100,2013-02-13 19:30:00,
2013-02-13 14:35:00,37.5,26.0,28.86,NE,45,2.0,4.0,59,0.00,,,0.00,Rainwise IP-100,2013-02-13 19:35:00,
2013-02-13 14:40:00,37.7,26.0,28.85,East,90,3.0,4.0,59,0.00,,,0.00,Rainwise IP-100,2013-02-13 19:40:00,
2013-02-13 14:45:00,37.8,26.0,28.85,ENE,67,2.0,5.0,59,0.00,,,0.00,Rainwise IP-100,2013-02-13 19:45:00,
2013-02-13 14:50:00,37.7,26.0,28.85,East,90,2.0,4.0,61,0.00,,,0.00,Rainwise IP-100,2013-02-13 19:50:00,
2013-02-13 14:55:00,37.9,26.0,28.85,East,90,2.0,6.0,62,0.00,,,0.00,Rainwise IP-100,2013-02-13 19:55:00,
2013-02-13 15:00:00,37.7,26.0,28.84,East,90,2.0,5.0,60,0.00,,,0.00,Rainwise IP-100,2013-02-13 20:00:00,
2013-02-13 15:05:00,37.9,26.0,28.84,ESE,112,4.0,6.0,60,0.00,,,0.00,Rainwise IP-100,2013-02-13 20:05:00,
2013-02-13 15:10:00,37.6,26.0,28.84,ENE,67,2.0,4.0,60,0.00,,,0.00,Rainwise IP-100,2013-02-13 20:10:00,
2013-02-13 15:15:00,37.8,26.0,28.85,NE,45,2.0,4.0,59,0.00,,,0.00,Rainwise IP-100,2013-02-13 20:15:00,
2013-02-13 15:20:00,38.5,26.0,28.84,East,90,1.0,2.0,60,0.00,,,0.00,Rainwise IP-100,2013-02-13 20:20:00,
2013-02-13 15:25:00,37.9,24.0,28.84,NNE,22,2.0,5.0,58,0.00,,,0.00,Rainwise IP-100,2013-02-13 20:25:00,
2013-02-13 15:30:00,38.3,24.0,28.84,NNE,22,4.0,4.0,58,0.00,,,0.00,Rainwise IP-100,2013-02-13 20:30:00,
2013-02-13 15:35:00,38.2,24.0,28.84,NE,45,2.0,6.0,58,0.00,,,0.00,Rainwise IP-100,2013-02-13 20:35:00,
2013-02-13 15:40:00,37.6,24.0,28.84,NE,45,2.0,4.0,58,0.00,,,0.00,Rainwise IP-100,2013-02-13 20:40:00,
2013-02-13 15:45:00,38.1,26.0,28.84,NE,45,0.0,5.0,60,0.00,,,0.00,Rainwise IP-100,2013-02-13 20:45:00,
2013-02-13 15:50:00,37.9,24.0,28.84,East,90,2.0,3.0,58,0.00,,,0.00,Rainwise IP-100,2013-02-13 20:50:00,
2013-02-13 15:55:00,37.5,26.0,28.84,NNE,22,2.0,4.0,60,0.00,,,0.00,Rainwise IP-100,2013-02-13 20:55:00,
2013-02-13 16:00:00,37.3,24.0,28.83,NNE,22,4.0,4.0,59,0.00,,,0.00,Rainwise IP-100,2013-02-13 21:00:00,
2013-02-13 16:05:00,36.9,24.0,28.83,North,360,2.0,4.0,60,0.00,,,0.00,Rainwise IP-100,2013-02-13 21:05:00,
2013-02-13 16:10:00,37.2,26.0,28.82,North,360,5.0,5.0,62,0.00,,,0.00,Rainwise IP-100,2013-02-13 21:10:00,
2013-02-13 16:15:00,37.0,24.0,28.82,North,360,4.0,7.0,61,0.00,,,0.00,Rainwise IP-100,2013-02-13 21:15:00,
2013-02-13 16:20:00,37.4,24.0,28.82,NNW,337,4.0,6.0,61,0.00,,,0.00,Rainwise IP-100,2013-02-13 21:20:00,
2013-02-13 16:25:00,37.3,24.0,28.82,North,360,5.0,6.0,61,0.00,,,0.00,Rainwise IP-100,2013-02-13 21:25:00,
2013-02-13 16:30:00,36.8,26.0,28.82,NNW,337,4.0,6.0,64,0.00,,,0.00,Rainwise IP-100,2013-02-13 21:30:00,
2013-02-13 16:35:00,36.1,26.0,28.82,North,360,7.0,9.0,65,0.00,,,0.00,Rainwise IP-100,2013-02-13 21:35:00,
2013-02-13 16:40:00,35.8,26.0,28.82,NNW,337,5.0,9.0,66,0.00,,,0.00,Rainwise IP-100,2013-02-13 21:40:00,
2013-02-13 16:45:00,35.6,26.0,28.82,NNE,22,5.0,8.0,65,0.00,,,0.00,Rainwise IP-100,2013-02-13 21:45:00,
2013-02-13 16:51:00,35.4,24.0,28.82,NNE,22,6.0,6.0,66,0.00,,,0.00,Rainwise IP-100,2013-02-13 21:51:00,
2013-02-13 16:56:00,35.2,24.0,28.82,North,360,4.0,7.0,66,0.00,,,0.00,Rainwise IP-100,2013-02-13 21:56:00,
2013-02-13 17:01:00,34.9,24.0,28.82,NNE,22,4.0,8.0,66,0.00,,,0.00,Rainwise IP-100,2013-02-13 22:01:00,
2013-02-13 17:06:00,34.7,24.0,28.82,North,360,2.0,6.0,67,0.00,,,0.00,Rainwise IP-100,2013-02-13 22:06:00,
2013-02-13 17:11:00,34.4,24.0,28.82,North,360,3.0,8.0,67,0.00,,,0.00,Rainwise IP-100,2013-02-13 22:11:00,
2013-02-13 17:16:00,34.4,24.0,28.81,NNE,22,6.0,7.0,67,0.00,,,0.00,Rainwise IP-100,2013-02-13 22:16:00,
2013-02-13 17:21:00,34.3,24.0,28.81,NNE,22,4.0,7.0,67,0.00,,,0.00,Rainwise IP-100,2013-02-13 22:21:00,
2013-02-13 17:26:00,33.9,26.0,28.81,North,360,2.0,6.0,68,0.00,,,0.00,Rainwise IP-100,2013-02-13 22:26:00,
2013-02-13 17:31:00,33.8,26.0,28.81,North,360,5.0,7.0,68,0.00,,,0.00,Rainwise IP-100,2013-02-13 22:31:00,
2013-02-13 17:36:00,33.5,26.0,28.81,North,360,4.0,6.0,69,0.00,,,0.00,Rainwise IP-100,2013-02-13 22:36:00,
2013-02-13 17:41:00,33.3,24.0,28.81,North,360,6.0,6.0,70,0.00,,,0.00,Rainwise IP-100,2013-02-13 22:41:00,
2013-02-13 17:46:00,33.3,24.0,28.81,North,360,1.0,7.0,70,0.00,,,0.00,Rainwise IP-100,2013-02-13 22:46:00,
2013-02-13 17:51:00,33.1,24.0,28.81,North,360,2.0,5.0,71,0.00,,,0.00,Rainwise IP-100,2013-02-13 22:51:00,
2013-02-13 17:56:00,33.3,24.0,28.81,North,360,3.0,8.0,70,0.00,,,0.00,Rainwise IP-100,2013-02-13 22:56:00,
2013-02-13 18:01:00,33.3,24.0,28.81,North,360,4.0,8.0,69,0.00,,,0.00,Rainwise IP-100,2013-02-13 23:01:00,
2013-02-13 18:06:00,33.3,24.0,28.81,North,360,3.0,9.0,69,0.00,,,0.00,Rainwise IP-100,2013-02-13 23:06:00,
2013-02-13 18:11:00,33.1,24.0,28.82,NNW,337,4.0,5.0,70,0.00,,,0.00,Rainwise IP-100,2013-02-13 23:11:00,
2013-02-13 18:16:00,32.9,24.0,28.81,NNW,337,2.0,6.0,71,0.00,,,0.00,Rainwise IP-100,2013-02-13 23:16:00,
2013-02-13 18:21:00,32.7,26.0,28.81,NNW,337,2.0,6.0,72,0.00,,,0.00,Rainwise IP-100,2013-02-13 23:21:00,
2013-02-13 18:26:00,32.6,26.0,28.81,NW,315,2.0,5.0,72,0.00,,,0.00,Rainwise IP-100,2013-02-13 23:26:00,
2013-02-13 18:31:00,32.5,26.0,28.82,WNW,292,2.0,3.0,72,0.00,,,0.00,Rainwise IP-100,2013-02-13 23:31:00,
2013-02-13 18:36:00,32.3,24.0,28.82,NW,315,2.0,3.0,73,0.00,,,0.00,Rainwise IP-100,2013-02-13 23:36:00,
2013-02-13 18:41:00,32.1,24.0,28.82,NNW,337,1.0,3.0,73,0.00,,,0.00,Rainwise IP-100,2013-02-13 23:41:00,
2013-02-13 18:46:00,32.0,24.0,28.82,NNW,337,2.0,3.0,73,0.00,,,0.00,Rainwise IP-100,2013-02-13 23:46:00,
2013-02-13 18:51:00,31.9,24.0,28.82,NNW,337,4.0,4.0,73,0.00,,,0.00,Rainwise IP-100,2013-02-13 23:51:00,
2013-02-13 18:56:00,31.9,24.0,28.82,NW,315,2.0,4.0,73,0.00,,,0.00,Rainwise IP-100,2013-02-13 23:56:00,
2013-02-13 19:01:00,32.0,24.0,28.82,NW,315,2.0,3.0,73,0.00,,,0.00,Rainwise IP-100,2013-02-14 00:01:00,
2013-02-13 19:06:00,32.0,24.0,28.82,NW,315,2.0,3.0,73,0.00,,,0.00,Rainwise IP-100,2013-02-14 00:06:00,
2013-02-13 19:11:00,31.9,24.0,28.82,WNW,292,1.0,2.0,73,0.00,,,0.00,Rainwise IP-100,2013-02-14 00:11:00,
2013-02-13 19:16:00,31.9,24.0,28.82,WNW,292,2.0,3.0,73,0.00,,,0.00,Rainwise IP-100,2013-02-14 00:16:00,
2013-02-13 19:21:00,31.7,24.0,28.83,West,270,2.0,3.0,73,0.00,,,0.00,Rainwise IP-100,2013-02-14 00:21:00,
2013-02-13 19:26:00,31.6,24.0,28.82,West,270,2.0,3.0,74,0.00,,,0.00,Rainwise IP-100,2013-02-14 00:26:00,
2013-02-13 19:31:00,31.4,24.0,28.82,WNW,292,2.0,3.0,74,0.00,,,0.00,Rainwise IP-100,2013-02-14 00:31:00,
2013-02-13 19:36:00,31.1,24.0,28.83,West,270,1.0,4.0,75,0.00,,,0.00,Rainwise IP-100,2013-02-14 00:36:00,
2013-02-13 19:41:00,30.8,24.0,28.83,WNW,292,4.0,4.0,75,0.00,,,0.00,Rainwise IP-100,2013-02-14 00:41:00,
2013-02-13 19:46:00,30.8,24.0,28.83,West,270,2.0,4.0,75,0.00,,,0.00,Rainwise IP-100,2013-02-14 00:46:00,
2013-02-13 19:51:00,30.9,24.0,28.83,WNW,292,2.0,3.0,75,0.00,,,0.00,Rainwise IP-100,2013-02-14 00:51:00,
2013-02-13 19:56:00,30.9,24.0,28.83,WNW,292,2.0,4.0,75,0.00,,,0.00,Rainwise IP-100,2013-02-14 00:56:00,
2013-02-13 20:01:00,30.8,24.0,28.83,West,270,2.0,3.0,75,0.00,,,0.00,Rainwise IP-100,2013-02-14 01:01:00,
2013-02-13 20:06:00,30.8,24.0,28.83,West,270,2.0,3.0,75,0.00,,,0.00,Rainwise IP-100,2013-02-14 01:06:00,
2013-02-13 20:11:00,30.7,24.0,28.84,West,270,2.0,4.0,76,0.00,,,0.00,Rainwise IP-100,2013-02-14 01:11:00,
2013-02-13 20:16:00,30.6,24.0,28.83,WNW,292,4.0,4.0,76,0.00,,,0.00,Rainwise IP-100,2013-02-14 01:16:00,
2013-02-13 20:21:00,30.7,24.0,28.83,NW,315,4.0,5.0,76,0.00,,,0.00,Rainwise IP-100,2013-02-14 01:21:00,
2013-02-13 20:26:00,30.9,24.0,28.83,NW,315,3.0,6.0,74,0.00,,,0.00,Rainwise IP-100,2013-02-14 01:26:00,
2013-02-13 20:31:00,30.9,23.0,28.83,NW,315,3.0,8.0,73,0.00,,,0.00,Rainwise IP-100,2013-02-14 01:31:00,
2013-02-13 20:36:00,30.8,23.0,28.83,NW,315,6.0,8.0,72,0.00,,,0.00,Rainwise IP-100,2013-02-14 01:36:00,
2013-02-13 20:41:00,30.6,23.0,28.84,NW,315,4.0,10.0,73,0.00,,,0.00,Rainwise IP-100,2013-02-14 01:41:00,
2013-02-13 20:46:00,30.5,23.0,28.84,WNW,292,3.0,6.0,72,0.00,,,0.00,Rainwise IP-100,2013-02-14 01:46:00,
2013-02-13 20:51:00,30.4,23.0,28.84,NW,315,3.0,4.0,72,0.00,,,0.00,Rainwise IP-100,2013-02-14 01:51:00,
2013-02-13 20:56:00,30.2,23.0,28.84,NW,315,2.0,4.0,72,0.00,,,0.00,Rainwise IP-100,2013-02-14 01:56:00,
2013-02-13 21:01:00,30.0,23.0,28.84,NW,315,2.0,4.0,72,0.00,,,0.00,Rainwise IP-100,2013-02-14 02:01:00,
2013-02-13 21:06:00,29.9,23.0,28.84,NW,315,2.0,6.0,73,0.00,,,0.00,Rainwise IP-100,2013-02-14 02:06:00,
2013-02-13 21:11:00,29.7,23.0,28.84,WNW,292,4.0,4.0,73,0.00,,,0.00,Rainwise IP-100,2013-02-14 02:11:00,
2013-02-13 21:16:00,29.6,24.0,28.84,WNW,292,2.0,5.0,74,0.00,,,0.00,Rainwise IP-100,2013-02-14 02:16:00,
2013-02-13 21:21:00,29.7,23.0,28.84,NW,315,3.0,5.0,73,0.00,,,0.00,Rainwise IP-100,2013-02-14 02:21:00,
2013-02-13 21:26:00,29.8,23.0,28.84,WNW,292,2.0,5.0,73,0.00,,,0.00,Rainwise IP-100,2013-02-14 02:26:00,
2013-02-13 21:31:00,29.7,24.0,28.84,NW,315,3.0,4.0,74,0.00,,,0.00,Rainwise IP-100,2013-02-14 02:31:00,
2013-02-13 21:36:00,29.8,24.0,28.85,NW,315,2.0,6.0,74,0.00,,,0.00,Rainwise IP-100,2013-02-14 02:36:00,
2013-02-13 21:41:00,29.7,24.0,28.85,NW,315,2.0,4.0,74,0.00,,,0.00,Rainwise IP-100,2013-02-14 02:41:00,
2013-02-13 21:46:00,29.6,24.0,28.85,WNW,292,1.0,4.0,74,0.00,,,0.00,Rainwise IP-100,2013-02-14 02:46:00,
2013-02-13 21:51:00,29.4,23.0,28.85,West,270,2.0,5.0,75,0.00,,,0.00,Rainwise IP-100,2013-02-14 02:51:00,
2013-02-13 21:56:00,29.3,23.0,28.85,WNW,292,3.0,4.0,76,0.00,,,0.00,Rainwise IP-100,2013-02-14 02:56:00,
2013-02-13 22:01:00,29.2,23.0,28.85,WNW,292,4.0,4.0,76,0.00,,,0.00,Rainwise IP-100,2013-02-14 03:01:00,
2013-02-13 22:06:00,29.2,23.0,28.85,WNW,292,2.0,4.0,76,0.00,,,0.00,Rainwise IP-100,2013-02-14 03:06:00,
2013-02-13 22:11:00,28.9,23.0,28.85,West,270,2.0,4.0,77,0.00,,,0.00,Rainwise IP-100,2013-02-14 03:11:00,
2013-02-13 22:16:00,28.8,23.0,28.85,West,270,3.0,4.0,78,0.00,,,0.00,Rainwise IP-100,2013-02-14 03:16:00,
2013-02-13 22:21:00,28.7,23.0,28.85,West,270,3.0,6.0,78,0.00,,,0.00,Rainwise IP-100,2013-02-14 03:21:00,
2013-02-13 22:26:00,28.6,24.0,28.85,West,270,4.0,6.0,79,0.00,,,0.00,Rainwise IP-100,2013-02-14 03:26:00,
2013-02-13 22:31:00,28.3,23.0,28.85,West,270,3.0,5.0,80,0.00,,,0.00,Rainwise IP-100,2013-02-14 03:31:00,
2013-02-13 22:36:00,28.3,23.0,28.85,West,270,3.0,7.0,80,0.00,,,0.00,Rainwise IP-100,2013-02-14 03:36:00,
2013-02-13 22:41:00,28.4,23.0,28.85,WNW,292,3.0,5.0,80,0.00,,,0.00,Rainwise IP-100,2013-02-14 03:41:00,
2013-02-13 22:47:00,28.4,23.0,28.85,West,270,3.0,4.0,81,0.00,,,0.00,Rainwise IP-100,2013-02-14 03:47:00,
2013-02-13 22:52:00,28.1,23.0,28.85,WNW,292,4.0,4.0,81,0.00,,,0.00,Rainwise IP-100,2013-02-14 03:52:00,
2013-02-13 22:57:00,28.1,23.0,28.86,West,270,2.0,5.0,81,0.00,,,0.00,Rainwise IP-100,2013-02-14 03:57:00,
2013-02-13 23:02:00,28.1,23.0,28.85,West,270,4.0,5.0,81,0.00,,,0.00,Rainwise IP-100,2013-02-14 04:02:00,
2013-02-13 23:07:00,27.9,23.0,28.86,WNW,292,3.0,5.0,81,0.00,,,0.00,Rainwise IP-100,2013-02-14 04:07:00,
2013-02-13 23:12:00,27.8,23.0,28.85,West,270,4.0,4.0,82,0.00,,,0.00,Rainwise IP-100,2013-02-14 04:12:00,
2013-02-13 23:17:00,27.7,23.0,28.85,West,270,2.0,4.0,82,0.00,,,0.00,Rainwise IP-100,2013-02-14 04:17:00,
2013-02-13 23:22:00,27.7,23.0,28.86,WNW,292,5.0,6.0,83,0.00,,,0.00,Rainwise IP-100,2013-02-14 04:22:00,
2013-02-13 23:27:00,27.4,24.0,28.86,West,270,2.0,6.0,84,0.00,,,0.00,Rainwise IP-100,2013-02-14 04:27:00,
2013-02-13 23:32:00,27.4,24.0,28.86,West,270,6.0,6.0,85,0.00,,,0.00,Rainwise IP-100,2013-02-14 04:32:00,
2013-02-13 23:37:00,27.6,24.0,28.86,WNW,292,3.0,7.0,85,0.00,,,0.00,Rainwise IP-100,2013-02-14 04:37:00,
2013-02-13 23:42:00,27.4,24.0,28.86,West,270,3.0,7.0,86,0.00,,,0.00,Rainwise IP-100,2013-02-14 04:42:00,
2013-02-13 23:47:00,27.3,24.0,28.86,West,270,3.0,7.0,87,0.00,,,0.00,Rainwise IP-100,2013-02-14 04:47:00,
2013-02-13 23:52:00,27.3,24.0,28.86,West,270,3.0,6.0,88,0.00,,,0.00,Rainwise IP-100,2013-02-14 04:52:00,
2013-02-13 23:57:00,27.1,24.0,28.86,West,270,4.0,5.0,88,0.00,,,0.00,Rainwise IP-100,2013-02-14 04:57:00,